Weather History for Hayward, WI

Change the Weather History Date:

Tuesday, January 15, 2013

  Actual Average Record
Temperature  
Mean Temperature 18 °F -  
Max Temperature 26 °F 25 °F 41 °F (1949)
Min Temperature 9 °F 2 °F -24 °F (2009)
Degree Days  
Heating Degree Days 48    
Moisture  
Dew Point 8 °F    
Average Humidity 67    
Maximum Humidity 84    
Minimum Humidity 47    
Precipitation  
Precipitation 0.00 in - - ()
Sea Level Pressure  
Sea Level Pressure 30.16 in    
Wind  
Wind Speed 6 mph (SSW)    
Max Wind Speed 10 mph    
Max Gust Speed 21 mph    
Visibility 10 miles    
Events      
Averages and records for this station are not official NWS values.
T = Trace of Precipitation, MM = Missing Value Source: NWS Daily Summary

Daily Weather History Graph

Daily Weather History Graph

Search for Another Location

Airport:

Trip Planner

Search our weather history database for the weather conditions in past years. The results will help you decide how hot, cold, wet, or windy it might be!

Date:

Astronomy

Jan. 15, 2013 Rise Set
Actual Time 7:43 AM CST 4:47 PM CST
Civil Twilight 7:10 AM CST 5:20 PM CST
Nautical Twilight 6:33 AM CST 5:58 PM CST
Astronomical Twilight 5:57 AM CST 6:33 PM CST
Moon 9:32 AM CST (1/15) 9:56 PM CST (1/15)
Length of Visible Light 10h 10m
Length of Day
9h 03m
Waxing Crescent, 19% of the Moon is Illuminated
Jan 15
Waxing Crescent
Jan 18
First Quarter
Jan 26
Full
Feb 3
Last Quarter
Feb 10
New

Hourly Weather History & Observations

Time (CST) Temp. Windchill Dew Point Humidity Pressure Visibility Wind Dir Wind Speed Gust Speed Precip Events Conditions
12:53 AM 9.0 °F 0.6 °F 1.9 °F 73% 30.32 in 10.0 mi South 4.6 mph - N/A   Overcast
1:53 AM 10.9 °F 1.4 °F 1.9 °F 67% 30.30 in 10.0 mi South 5.8 mph - N/A   Overcast
2:53 AM 10.9 °F -1.8 °F 3.0 °F 70% 30.30 in 10.0 mi South 9.2 mph - N/A   Overcast
3:53 AM 10.9 °F 2.9 °F 3.9 °F 73% 30.28 in 10.0 mi SSW 4.6 mph - N/A   Clear
4:53 AM 10.9 °F 2.9 °F 5.0 °F 77% 30.27 in 10.0 mi Variable 4.6 mph - N/A   Clear
5:53 AM 10.0 °F 0.4 °F 5.0 °F 80% 30.25 in 10.0 mi SSW 5.8 mph - N/A   Scattered Clouds
6:53 AM 10.0 °F 3.6 °F 5.0 °F 80% 30.26 in 10.0 mi Variable 3.5 mph - N/A   Overcast
7:53 AM 9.0 °F 0.6 °F 5.0 °F 84% 30.27 in 10.0 mi SW 4.6 mph - N/A   Clear
8:53 AM 10.9 °F 1.4 °F 6.1 °F 81% 30.28 in 9.0 mi SW 5.8 mph - N/A   Clear
9:53 AM 12.9 °F 3.8 °F 7.0 °F 77% 30.27 in 10.0 mi Variable 5.8 mph - N/A   Overcast
10:53 AM 16.0 °F 8.8 °F 8.1 °F 71% 30.24 in 10.0 mi SSW 4.6 mph - N/A   Mostly Cloudy
11:53 AM 21.0 °F 11.4 °F 9.0 °F 60% 30.19 in 10.0 mi SSW 8.1 mph - N/A   Mostly Cloudy
12:53 PM 24.1 °F 16.0 °F 8.1 °F 51% 30.15 in 10.0 mi SSW 6.9 mph - N/A   Overcast
1:53 PM 26.1 °F 16.8 °F 9.0 °F 49% 30.12 in 10.0 mi SSW 9.2 mph - N/A   Clear
2:53 PM 26.1 °F 18.4 °F 8.1 °F 47% 30.10 in 10.0 mi Variable 6.9 mph - N/A   Clear
3:53 PM 25.0 °F 16.3 °F 8.1 °F 49% 30.09 in 10.0 mi SSW 8.1 mph 20.7 mph N/A   Clear
4:53 PM 23.0 °F 15.8 °F 9.0 °F 55% 30.07 in 10.0 mi SSW 5.8 mph - N/A   Clear
5:53 PM 21.9 °F 17.2 °F 10.0 °F 60% 30.06 in 10.0 mi SSW 3.5 mph - N/A   Clear
6:53 PM 21.9 °F 17.2 °F 12.0 °F 66% 30.03 in 10.0 mi SSW 3.5 mph - N/A   Clear
7:53 PM 21.9 °F 15.7 °F 12.9 °F 68% 30.00 in 10.0 mi SSW 4.6 mph - N/A   Clear
8:53 PM 23.0 °F 14.7 °F 15.1 °F 72% 29.96 in 10.0 mi SSW 6.9 mph - N/A   Clear
9:53 PM 24.1 °F 13.7 °F 15.1 °F 69% 29.90 in 10.0 mi SSW 10.4 mph 20.7 mph N/A   Clear
10:53 PM 24.1 °F 16.0 °F 15.1 °F 69% 29.86 in 10.0 mi Variable 6.9 mph 19.6 mph N/A   Clear